TJS-4

Last updated on Nov. 29, 2020, 6:16 a.m. UTC

1 44637U 19070A   20333.45114288 -.00000152  00000-0  00000+0 0  9993
2 44637   0.0214  40.5923 0001993 204.6919  68.4465  1.00274695  4235
UTC
Height (km)
Latitude
Longitude
Inclination
Orbital Period
UTC large
Height (km)
Speed (km/s)
/
Latitude / Longitude
Inclination (degrees)
Orbital Period (minutes)
Azimuth
Elevation
Range (km)
Doppler Factor
iOS Compass Heading
iOS Angle

Next 30 passes for location: Hong Kong

Rise time Rise Azimuth (degrees) Set time Set Azimuth (degrees) Duration Max altitude (degrees)

No matching passes for this satellites